Location: La Brionne
(46.1728°N, 1.7849°E)
Time: 07:53:00
(UTC+00:00)

Cosmos 2322 Rocket - Pass Details

Date: 02 November 2021
Orbit: 832 x 851 km, 71.0° (Epoch: 01 December)

Event Time Altitude Azimuth Distance (km) Brightness Sun altitude
Rises 17:31:39 0° 232° (SW) 3,368 6.6 -9.9°
Reaches altitude 10° 17:34:17 10° 242° (WSW) 2,439 5.9 -10.4°
Maximum altitude 17:39:22 35° 307° (NW) 1,327 3.7 -11.2°
Drops below altitude 10° 17:44:30 10° 13° (NNE) 2,461 4.4 -12.1°
Sets 17:47:11 0° 22° (NNE) 3,402 5.0 -12.6°
